Torna al catalogo

STARLINK-32045

AttivoComunicazioniVLEO
NORAD 60106·PAYLOAD·🇺🇸 United States

Lanciato Jun 23, 2024 da Cape Canaveral Space Force Station

Loading…

Prossimi Passaggi (prossime 24 ore)

TLE

AggiornatoSource: CelesTrak SupGP

Epoca: Sep 14, 2026, 21:11 UTC

1 60106C 24117R   26257.88312500  .00043733  00000+0  12921-2 0  2570
2 60106  53.1571 235.6813 0001351  97.7498 142.1166 15.34369125    10

Traccia STARLINK-32045 in tempo reale con AllMySat

Download on the App Store